CW4517 Weather Reports


time (UTC)temp
C
wind
direction
speed
KPH
gust
KPH
rain 1hr
cm
rain 24hr
cm
rain mn
cm
humidity
%
barometer
mb
20260507223919 15 225 12.9 24.1 0.00 0.00 0.00 57 1006.6
20260507223640 15 229 11.3 24.1 0.00 0.00 0.00 56 1006.7
20260507222920 15 197 11.3 22.5 0.00 0.00 0.00 57 1006.7
20260507222420 15 255 12.9 22.5 0.00 0.00 0.00 58 1006.7
20260507221920 15 225 12.9 22.5 0.00 0.00 0.00 57 1006.8
20260507221419 15 211 11.3 22.5 0.00 0.00 0.00 59 1006.8
20260507220919 14 221 11.3 22.5 0.00 0.00 0.00 59 1006.8
20260507220419 14 213 11.3 22.5 0.00 0.00 0.00 60 1007.1
20260507215920 14 220 12.9 25.7 0.00 0.00 0.00 60 1007.1
20260507215419 13 231 14.5 25.7 0.00 0.00 0.00 61 1007.1
20260507214914 13 219 14.5 25.7 0.00 0.00 0.00 61 1007.1
20260507214402 13 227 14.5 32.2 0.00 0.00 0.00 61 1007.1
20260507213849 13 220 14.5 32.2 0.00 0.00 0.00 60 1007.1
20260507213337 13 215 16.1 37.0 0.00 0.00 0.00 60 1007.2
20260507212831 13 275 16.1 37.0 0.00 0.00 0.00 62 1007.2
20260507212546 13 220 16.1 33.8 0.00 0.00 0.00 61 1007.2
20260507211819 13 227 17.7 33.8 0.00 0.00 0.00 62 1007.1
20260507211538 13 248 17.7 33.8 0.00 0.00 0.00 61 1007.1
20260507210807 13 248 16.1 33.8 0.00 0.00 0.00 61 1007.1
20260507210301 13 204 16.1 30.6 0.00 0.00 0.00 61 1007.2
20260507205755 13 235 14.5 33.8 0.00 0.00 0.00 61 1007.2
20260507205245 13 214 16.1 33.8 0.00 0.00 0.00 62 1007.2
20260507204743 13 234 14.5 29.0 0.00 0.00 0.00 62 1007.6
20260507204459 13 231 12.9 25.7 0.00 0.00 0.00 61 1007.6
20260507203817 13 177 12.9 25.7 0.00 0.00 0.00 62 1007.6
20260507202715 12 239 14.5 30.6 0.00 0.00 0.00 64 1008.1
20260507202213 12 213 12.9 30.6 0.00 0.00 0.00 65 1008.1
20260507201708 12 240 12.9 30.6 0.00 0.00 0.00 65 1008.2
20260507201201 12 238 14.5 33.8 0.00 0.00 0.00 66 1008.2
20260507200656 12 237 16.1 33.8 0.00 0.00 0.00 65 1008.2
20260507200145 12 241 14.5 32.2 0.00 0.00 0.00 65 1008.7
20260507195914 11 217 12.9 25.7 0.00 0.00 0.00 66 1008.7
20260507195137 11 268 9.7 25.7 0.00 0.00 0.00 67 1008.7
20260507194632 11 221 11.3 25.7 0.00 0.00 0.00 70 1009.1
20260507194125 10 286 14.5 32.2 0.00 0.00 0.00 71 1009.1
20260507193620 10 205 16.1 32.2 0.00 0.00 0.00 71 1009.1
20260507193113 11 245 16.1 35.4 0.00 0.00 0.00 68 1009.2
20260507192832 11 233 16.1 35.4 0.00 0.00 0.00 65 1009.2
20260507192557 11 171 17.7 38.6 0.00 0.00 0.00 63 1009.2
20260507191555 11 259 16.1 38.6 0.00 0.00 0.00 62 1009.3
20260507191049 11 242 16.1 33.8 0.00 0.00 0.00 62 1009.3
20260507190543 11 217 17.7 40.2 0.00 0.00 0.00 61 1009.3
20260507190033 12 246 17.7 40.2 0.00 0.00 0.00 60 1009.2
20260507185757 12 267 20.9 35.4 0.00 0.00 0.00 61 1009.2
20260507185242 12 229 20.9 43.5 0.00 0.00 0.00 60 1009.2
20260507185006 12 205 19.3 43.5 0.00 0.00 0.00 57 1009.0
20260507184014 13 215 17.7 41.8 0.00 0.00 0.00 56 1009.0
20260507183515 13 203 16.1 35.4 0.00 0.00 0.00 54 1009.0
20260507183014 13 240 14.5 35.4 0.00 0.00 0.00 51 1009.0
20260507182515 13 259 14.5 35.4 0.00 0.00 0.00 49 1009.0
20260507182015 13 192 14.5 35.4 0.00 0.00 0.00 47 1009.0
20260507181743 13 218 12.9 37.0 0.00 0.00 0.00 49 1009.3
20260507181014 13 243 12.9 37.0 0.00 0.00 0.00 48 1009.3
20260507180515 13 238 12.9 25.7 0.00 0.00 0.00 48 1009.3
20260507180015 13 235 14.5 48.3 0.00 0.00 0.00 48 1009.5
20260507175742 13 246 11.3 48.3 0.00 0.00 0.00 48 1009.5
20260507175018 13 235 9.7 32.2 0.00 0.00 0.00 47 1009.5
20260507174513 13 229 11.3 27.4 0.00 0.00 0.00 46 1009.5
20260507173959 13 152 11.3 27.4 0.00 0.00 0.00 46 1009.5
20260507173447 13 228 9.7 27.4 0.00 0.00 0.00 45 1009.7
20260507172935 13 247 9.7 25.7 0.00 0.00 0.00 45 1009.7
20260507172423 13 263 9.7 25.7 0.00 0.00 0.00 44 1009.7
20260507171917 13 240 8.0 14.5 0.00 0.00 0.00 46 1010.1
20260507171411 13 290 8.0 19.3 0.00 0.00 0.00 45 1010.1
20260507170905 13 287 9.7 22.5 0.00 0.00 0.00 44 1010.1
20260507170626 13 253 9.7 22.5 0.00 0.00 0.00 46 1010.2
20260507170117 13 240 9.7 19.3 0.00 0.00 0.00 46 1010.2
20260507165610 13 207 9.7 20.9 0.00 0.00 0.00 46 1010.2
20260507164841 13 250 8.0 20.9 0.00 0.00 0.00 47 1010.3
20260507164335 13 240 8.0 16.1 0.00 0.00 0.00 45 1010.3
20260507163829 12 227 8.0 19.3 0.00 0.00 0.00 46 1010.3
20260507163323 12 298 9.7 19.3 0.00 0.00 0.00 47 1010.8
20260507162812 12 234 11.3 19.3 0.00 0.00 0.00 46 1010.8
20260507162311 12 239 9.7 19.3 0.00 0.00 0.00 48 1010.8
20260507161804 12 241 8.0 19.3 0.00 0.00 0.00 49 1011.0
20260507161259 12 308 8.0 16.1 0.00 0.00 0.00 49 1011.0
20260507160753 12 222 8.0 24.1 0.00 0.00 0.00 48 1011.0
20260507160243 12 212 6.4 20.9 0.00 0.00 0.00 50 1011.1
20260507155741 12 190 6.4 19.3 0.00 0.00 0.00 51 1011.1
20260507155235 12 224 9.7 20.9 0.00 0.00 0.00 51 1011.1
20260507154729 12 184 9.7 20.9 0.00 0.00 0.00 49 1011.3
20260507154316 11 196 8.0 20.9 0.00 0.00 0.00 49 1011.3
20260507153211 11 234 6.4 17.7 0.00 0.00 0.00 49 1011.4
20260507152700 11 244 8.0 17.7 0.00 0.00 0.00 50 1011.4
20260507152158 11 225 8.0 17.7 0.00 0.00 0.00 50 1011.4
20260507151653 11 247 8.0 14.5 0.00 0.00 0.00 50 1011.6
20260507151147 11 180 8.0 16.1 0.00 0.00 0.00 51 1011.6
20260507150640 10 240 8.0 16.1 0.00 0.00 0.00 51 1011.6
20260507150130 10 261 8.0 16.1 0.00 0.00 0.00 50 1011.7
20260507145628 10 241 8.0 16.1 0.00 0.00 0.00 53 1011.7
20260507145342 10 185 8.0 16.1 0.00 0.00 0.00 52 1011.7
20260507144616 10 263 8.0 16.1 0.00 0.00 0.00 54 1011.9
20260507144111 10 212 6.4 14.5 0.00 0.00 0.00 52 1011.9
20260507143605 10 208 6.4 12.9 0.00 0.00 0.00 56 1011.9
20260507143059 9 200 6.4 12.9 0.00 0.00 0.00 55 1011.8
20260507142549 9 236 4.8 11.3 0.00 0.00 0.00 55 1011.8
20260507142049 9 213 4.8 11.3 0.00 0.00 0.00 57 1011.8
20260507141537 9 204 4.8 11.3 0.00 0.00 0.00 56 1012.0
20260507141030 9 192 4.8 11.3 0.00 0.00 0.00 56 1012.0
20260507140524 8 236 6.4 11.3 0.00 0.00 0.00 57 1012.0
20260507140239 8 196 6.4 12.9 0.00 0.00 0.00 59 1012.2
20260507135508 8 228 4.8 12.9 0.00 0.00 0.00 59 1012.2
20260507134959 8 184 4.8 11.3 0.00 0.00 0.00 59 1012.2
20260507134459 8 244 6.4 14.5 0.00 0.00 0.00 58 1012.3
20260507134000 8 230 6.4 14.5 0.00 0.00 0.00 60 1012.3
20260507133459 8 223 4.8 11.3 0.00 0.00 0.00 60 1012.3
20260507132959 7 269 6.4 11.3 0.00 0.00 0.00 61 1012.3
20260507132500 7 251 6.4 12.9 0.00 0.00 0.00 61 1012.3
20260507132000 7 254 6.4 12.9 0.00 0.00 0.00 61 1012.3
20260507131500 7 206 4.8 11.3 0.00 0.00 0.00 63 1012.2
20260507131044 6 248 4.8 9.7 0.00 0.00 0.00 65 1012.2
20260507125942 6 209 3.2 9.7 0.00 0.00 0.00 65 1011.9
20260507125429 6 219 3.2 6.4 0.00 0.00 0.00 67 1011.9
20260507124923 5 236 3.2 6.4 0.00 0.00 0.00 67 1011.9
20260507124418 5 237 3.2 6.4 0.00 0.00 0.00 69 1011.9
20260507123906 5 225 3.2 6.4 0.00 0.00 0.00 70 1011.9
20260507123406 5 223 3.2 6.4 0.00 0.00 0.00 70 1011.9
20260507122901 5 217 3.2 6.4 0.00 0.00 0.00 71 1011.9
20260507122354 4 221 1.6 6.4 0.00 0.00 0.00 70 1011.9
20260507121848 4 125 0.0 3.2 0.00 0.00 0.00 72 1011.9
20260507121342 3 125 1.6 3.2 0.00 0.00 0.00 72 1011.9
20260507120835 3 125 1.6 3.2 0.00 0.00 0.00 72 1011.9
20260507120325 3 125 1.6 3.2 0.00 0.00 0.00 73 1011.9
20260507115814 3 125 0.0 3.2 0.00 0.00 0.00 73 1011.9
20260507115313 3 122 0.0 3.2 0.00 0.00 0.00 74 1011.9
20260507114808 3 122 0.0 0.0 0.00 0.00 0.00 74 1011.8
20260507114524 3 122 0.0 0.0 0.00 0.00 0.00 74 1011.8
20260507113756 2 235 0.0 0.0 0.00 0.00 0.00 75 1011.8
20260507113245 2 235 0.0 3.2 0.00 0.00 0.00 76 1011.7
20260507112744 2 235 0.0 3.2 0.00 0.00 0.00 76 1011.7
20260507112458 2 235 1.6 3.2 0.00 0.00 0.00 76 1011.7
20260507111732 2 235 1.6 3.2 0.00 0.00 0.00 77 1011.7
20260507111225 2 235 1.6 4.8 0.00 0.00 0.00 77 1011.7
20260507110714 2 235 3.2 4.8 0.00 0.00 0.00 77 1011.7
20260507110213 2 235 3.2 4.8 0.00 0.00 0.00 77 1011.6
20260507105708 2 235 1.6 4.8 0.00 0.00 0.00 77 1011.6
20260507105209 2 235 1.6 3.2 0.00 0.00 0.00 77 1011.6
20260507104709 2 235 1.6 4.8 0.00 0.00 0.00 77 1011.8
20260507104211 2 235 3.2 4.8 0.00 0.00 0.00 77 1011.8
20260507103926 2 235 3.2 4.8 0.00 0.00 0.00 77 1011.8
20260507103207 2 235 3.2 4.8 0.00 0.00 0.00 77 1011.8
20260507102706 2 235 3.2 4.8 0.00 0.00 0.00 77 1011.8
20260507102207 2 235 3.2 4.8 0.00 0.00 0.00 77 1011.8
20260507101706 2 235 3.2 4.8 0.00 0.00 0.00 77 1011.8
20260507101207 2 238 1.6 4.8 0.00 0.00 0.00 77 1011.8
20260507100707 2 238 1.6 3.2 0.00 0.00 0.00 77 1011.8
20260507100207 2 238 1.6 3.2 0.00 0.00 0.00 76 1011.8
20260507095707 2 238 1.6 3.2 0.00 0.00 0.00 76 1011.8
20260507095428 2 238 1.6 3.2 0.00 0.00 0.00 75 1011.8
20260507094705 2 238 0.0 3.2 0.00 0.00 0.00 75 1011.9
20260507094205 2 238 0.0 3.2 0.00 0.00 0.00 75 1011.9
20260507094142 2 238 1.6 3.2 0.00 0.00 0.00 75 1011.9
20260507093158 2 238 1.6 3.2 0.00 0.00 0.00 74 1011.9
20260507092655 3 238 1.6 6.4 0.00 0.00 0.00 74 1011.9
20260507092154 3 238 1.6 6.4 0.00 0.00 0.00 74 1011.9
20260507091657 3 279 1.6 4.8 0.00 0.00 0.00 74 1011.9
20260507091415 3 279 1.6 3.2 0.00 0.00 0.00 74 1011.9
20260507090654 3 279 1.6 3.2 0.00 0.00 0.00 74 1011.9
20260507090155 3 279 0.0 1.6 0.00 0.00 0.00 74 1011.9
20260507085915 3 279 0.0 1.6 0.00 0.00 0.00 74 1011.9
20260507085153 3 279 0.0 0.0 0.00 0.00 0.00 73 1011.9
20260507084653 3 279 0.0 1.6 0.00 0.00 0.00 73 1011.9
20260507084150 3 279 0.0 3.2 0.00 0.00 0.00 73 1011.9
20260507083859 3 279 1.6 4.8 0.00 0.00 0.00 73 1011.9
20260507083140 3 279 1.6 4.8 0.00 0.00 0.00 73 1011.9
20260507082634 3 279 1.6 3.2 0.00 0.00 0.00 73 1011.9
20260507082123 3 279 0.0 3.2 0.00 0.00 0.00 73 1011.9
20260507081620 3 279 0.0 3.2 0.00 0.00 0.00 72 1011.9
20260507081115 3 279 0.0 0.0 0.00 0.00 0.00 72 1011.9
20260507080834 3 279 0.0 0.0 0.00 0.00 0.00 72 1011.9
20260507080317 3 279 0.0 0.0 0.00 0.00 0.00 72 1011.9
20260507075558 3 279 0.0 0.0 0.00 0.00 0.00 72 1011.9
20260507075313 3 279 0.0 0.0 0.00 0.00 0.00 72 1011.9
20260507075019 3 279 0.0 0.0 0.00 0.00 0.00 71 1011.8
20260507074040 3 279 0.0 1.6 0.00 0.00 0.00 71 1011.8
20260507073532 3 279 0.0 1.6 0.00 0.00 0.00 71 1011.8
20260507073026 3 279 0.0 1.6 0.00 0.00 0.00 71 1011.9
20260507072521 3 279 0.0 1.6 0.00 0.00 0.00 71 1011.9
20260507072232 3 279 0.0 3.2 0.00 0.00 0.00 71 1011.9
20260507071509 3 279 1.6 3.2 0.00 0.00 0.00 71 1011.9
20260507071003 3 279 1.6 3.2 0.00 0.00 0.00 71 1011.9
20260507070456 3 279 1.6 3.2 0.00 0.00 0.00 71 1011.9
20260507065951 3 279 1.6 3.2 0.00 0.00 0.00 71 1011.9
20260507065441 3 279 0.0 3.2 0.00 0.00 0.00 71 1011.9
20260507064939 3 279 0.0 3.2 0.00 0.00 0.00 71 1012.0
20260507064434 3 279 0.0 3.2 0.00 0.00 0.00 70 1012.0
20260507063926 3 279 0.0 3.2 0.00 0.00 0.00 71 1012.0
20260507063422 3 279 0.0 1.6 0.00 0.00 0.00 71 1012.1
20260507062909 3 279 0.0 1.6 0.00 0.00 0.00 70 1012.1
20260507062409 3 279 0.0 1.6 0.00 0.00 0.00 70 1012.1
20260507061907 4 279 0.0 0.0 0.00 0.00 0.00 70 1012.1
20260507061405 4 279 0.0 0.0 0.00 0.00 0.00 69 1012.1
20260507060904 4 279 0.0 0.0 0.00 0.00 0.00 68 1012.1
20260507060402 4 279 0.0 0.0 0.00 0.00 0.00 68 1012.2
20260507060126 4 279 0.0 0.0 0.00 0.00 0.00 68 1012.2
20260507055359 4 279 0.0 0.0 0.00 0.00 0.00 67 1012.2
20260507054857 4 279 0.0 0.0 0.00 0.00 0.00 66 1012.2
20260507054354 4 279 0.0 0.0 0.00 0.00 0.00 66 1012.2
20260507054118 5 279 0.0 1.6 0.00 0.00 0.00 66 1012.2
20260507053350 5 279 0.0 1.6 0.00 0.00 0.00 66 1012.3
20260507053111 5 279 0.0 1.6 0.00 0.00 0.00 66 1012.3
20260507052351 5 279 0.0 1.6 0.00 0.00 0.00 65 1012.3
20260507051849 5 279 0.0 3.2 0.00 0.00 0.00 65 1012.3
20260507051352 5 279 0.0 3.2 0.00 0.00 0.00 66 1012.3
20260507050854 5 281 0.0 1.6 0.00 0.00 0.00 65 1012.3
20260507050350 5 281 0.0 3.2 0.00 0.00 0.00 64 1012.3
20260507050330 5 281 0.0 3.2 0.00 0.00 0.00 64 1012.3
20260507045339 5 281 0.0 3.2 0.00 0.00 0.00 65 1012.3
20260507044833 5 281 0.0 3.2 0.00 0.00 0.00 64 1012.3
20260507044321 5 281 0.0 0.0 0.00 0.00 0.00 64 1012.3
20260507043822 5 281 0.0 0.0 0.00 0.00 0.00 64 1012.3
20260507043316 5 281 0.0 3.2 0.00 0.00 0.00 64 1012.1
20260507042808 5 281 0.0 3.2 0.00 0.00 0.00 63 1012.1
20260507042306 5 281 0.0 1.6 0.00 0.00 0.00 62 1012.1
20260507041754 5 281 0.0 3.2 0.00 0.00 0.00 62 1012.2
20260507041247 5 281 0.0 3.2 0.00 0.00 0.00 62 1012.2
20260507040736 6 281 0.0 0.0 0.00 0.00 0.00 62 1012.2
20260507040222 6 281 0.0 0.0 0.00 0.00 0.00 61 1012.2
20260507035944 6 281 0.0 0.0 0.00 0.00 0.00 61 1012.2
20260507035222 6 281 0.0 0.0 0.00 0.00 0.00 61 1012.2
20260507034723 6 281 0.0 0.0 0.00 0.00 0.00 60 1012.3
20260507034222 6 281 0.0 0.0 0.00 0.00 0.00 60 1012.3
20260507033722 6 281 0.0 0.0 0.00 0.00 0.00 59 1012.3
20260507033224 6 281 0.0 0.0 0.00 0.00 0.00 59 1012.3
20260507032725 6 281 0.0 0.0 0.00 0.00 0.00 58 1012.3
20260507032221 7 281 0.0 3.2 0.00 0.00 0.00 58 1012.3
20260507031720 7 281 0.0 3.2 0.00 0.00 0.00 57 1012.2
20260507031215 7 281 0.0 3.2 0.00 0.00 0.00 55 1012.2
20260507030708 7 281 0.0 3.2 0.00 0.00 0.00 55 1012.2
20260507030202 7 281 0.0 4.8 0.00 0.00 0.00 55 1012.1
20260507025653 7 281 1.6 4.8 0.00 0.00 0.00 54 1012.1
20260507025145 7 267 1.6 4.8 0.00 0.00 0.00 53 1012.1
20260507024645 7 263 1.6 4.8 0.00 0.00 0.00 53 1012.0
20260507024139 7 289 1.6 4.8 0.00 0.00 0.00 53 1012.0
20260507023631 8 288 3.2 8.0 0.00 0.00 0.00 53 1012.0
20260507023126 8 309 3.2 8.0 0.00 0.00 0.00 52 1011.9
20260507023109 8 281 3.2 8.0 0.00 0.00 0.00 51 1011.9
20260507022109 8 292 3.2 9.7 0.00 0.00 0.00 52 1011.9
20260507021831 8 317 3.2 9.7 0.00 0.00 0.00 52 1011.6
20260507021103 8 36 3.2 8.0 0.00 0.00 0.00 52 1011.6
20260507020558 8 277 3.2 8.0 0.00 0.00 0.00 51 1011.6
20260507020046 8 325 3.2 9.7 0.00 0.00 0.00 51 1011.4
20260507015541 8 263 3.2 9.7 0.00 0.00 0.00 51 1011.4
20260507015040 8 325 3.2 9.7 0.00 0.00 0.00 51 1011.4
20260507014532 8 286 3.2 9.7 0.00 0.00 0.00 49 1011.2
20260507014025 9 293 4.8 9.7 0.00 0.00 0.00 50 1011.2
20260507013522 9 343 4.8 11.3 0.00 0.00 0.00 49 1011.2
20260507013010 9 309 6.4 14.5 0.00 0.00 0.00 49 1011.2
20260507012509 9 292 6.4 16.1 0.00 0.00 0.00 48 1011.2
20260507011958 9 246 6.4 19.3 0.00 0.00 0.00 49 1011.2
20260507011455 10 272 6.4 19.3 0.00 0.00 0.00 49 1011.1
20260507010946 10 233 6.4 16.1 0.00 0.00 0.00 49 1011.1
20260507010444 10 291 4.8 16.1 0.00 0.00 0.00 48 1010.9
20260507005940 10 5 4.8 11.3 0.00 0.00 0.00 48 1010.9
20260507005428 10 324 3.2 11.3 0.00 0.00 0.00 48 1010.9
20260507004926 10 30 4.8 16.1 0.00 0.00 0.00 48 1010.9
20260507004637 10 341 8.0 20.9 0.00 0.00 0.00 47 1010.9
20260507003913 10 286 9.7 22.5 0.00 0.00 0.00 46 1010.9
20260507003408 11 342 8.0 22.5 0.00 0.00 0.00 45 1010.8
20260507002859 11 286 8.0 22.5 0.00 0.00 0.00 46 1010.8
20260507002356 11 217 9.7 25.7 0.00 0.00 0.00 45 1010.8
20260507002121 11 285 11.3 25.7 0.00 0.00 0.00 45 1010.5
20260507001601 11 327 9.7 22.5 0.00 0.00 0.00 45 1010.5
20260507000838 11 324 8.0 24.1 0.00 0.00 0.00 45 1010.5
20260507000330 11 309 8.0 24.1 0.00 0.00 0.00 45 1010.3
20260506235819 11 295 8.0 22.5 0.00 0.00 0.00 44 1010.3
20260506235310 11 314 9.7 22.5 0.00 0.00 0.00 45 1010.3
20260506234808 11 250 11.3 24.1 0.00 0.00 0.00 44 1010.2
20260506234309 11 241 9.7 24.1 0.00 0.00 0.00 44 1010.2
20260506233809 11 267 9.7 33.8 0.00 0.00 0.00 45 1010.2
20260506233529 11 250 9.7 33.8 0.00 0.00 0.00 43 1010.2
20260506232809 12 300 8.0 20.9 0.00 0.00 0.00 43 1010.2
20260506232308 12 292 8.0 19.3 0.00 0.00 0.00 43 1010.2
20260506231811 12 315 8.0 19.3 0.00 0.00 0.00 43 1010.1
20260506231313 12 308 9.7 22.5 0.00 0.00 0.00 43 1010.1
20260506230809 12 215 9.7 22.5 0.00 0.00 0.00 43 1010.1
20260506230258 12 269 6.4 19.3 0.00 0.00 0.00 42 1009.8
20260506225755 12 225 8.0 20.9 0.00 0.00 0.00 42 1009.8
20260506225249 12 292 8.0 20.9 0.00 0.00 0.00 42 1009.8
20260506224736 12 325 8.0 20.9 0.00 0.00 0.00 42 1009.9
20260506224235 12 214 8.0 19.3 0.00 0.00 0.00 42 1009.9